Home   Weather   Aurora   Past weeks

Flag for USA Past Weather in Aurora, Colorado, USA — Yesterday and Last 2 Weeks

Now
59 °F

Passing clouds.


Feels Like: 57 °F
Forecast: 48 / 80 °F
Wind: 9 mph from Southeast

Location: Buckley Air Force Base

Current Time: Sep 26, 2016 at 9:50:54 PM

Latest Report: Sep 26, 2016 at 8:58 PM


Visibility: 10 mi

Pressure: 30.20 "Hg (24.84 "Hg at 1647m altitude)

Humidity: 34%

Dew Point: 30 °F

Location of AuroraLocation

Past Weather in Aurora — Graph

°F

Aurora Temperature Yesterday

Maximum temperature yesterday: 67 °F (at 4:58 PM)
Minimum temperature yesterday: 41 °F (at 6:58 AM)
Average temperature yesterday: 53 °F

High & Low Weather Summary for the Past Weeks

 TemperatureHumidityPressure
High89 °F (Sep 19, 4:58 PM)100% (Sep 22, 7:59 AM)30.40 "Hg (Sep 22, 7:59 AM)
Low41 °F (Sep 25, 6:58 AM)9% (Sep 19, 1:58 PM)29.46 "Hg (Sep 23, 4:58 PM)
Average63 °F45%29.96 "Hg
* Reported Sep 11 7:58 PM — Sep 26 7:58 PM, Aurora, Weather by CustomWeather, © 2016

Note: Actual official high and low records may vary slightly from our data, if they occured in-between our weather recording intervals... More about our weather records

Advertising

Aurora Weather History for the Previous 24 Hours

Scroll right to see more
 ConditionsComfort  
Time TempWeatherWind HumidityBarometerVisibility
7:58 PM
Mon, Sep 26
58 °FPassing clouds.8 mph33%30.21 "Hg10 mi
6:58 PM65 °FPassing clouds.6 mph27%30.20 "Hg10 mi
5:58 PM72 °FPassing clouds.9 mph20%30.18 "Hg10 mi
4:58 PM75 °FPassing clouds.7 mph18%30.17 "Hg10 mi
3:58 PM75 °FPassing clouds.3 mph18%30.17 "Hg10 mi
2:58 PM74 °FPassing clouds.6 mph19%30.19 "Hg10 mi
1:58 PM73 °FPassing clouds.5 mph20%30.21 "Hg10 mi
12:58 PM72 °FSunny.5 mph21%30.24 "Hg10 mi
11:58 AM70 °FSunny.2 mph22%30.26 "Hg10 mi
10:58 AM66 °FSunny.3 mph27%30.31 "Hg10 mi
9:58 AM62 °FSunny.5 mph33%30.32 "Hg10 mi
8:58 AM56 °FSunny.8 mph41%30.34 "Hg10 mi
7:58 AM49 °FSunny.7 mph51%30.34 "Hg10 mi
6:58 AM42 °FSunny.10 mph65%30.34 "Hg10 mi
5:58 AM42 °FClear.6 mph65%30.31 "Hg10 mi
4:58 AM43 °FClear.3 mph62%30.31 "Hg10 mi
3:58 AM43 °FClear.5 mph61%30.31 "Hg10 mi
2:58 AM45 °FClear.5 mph57%30.32 "Hg10 mi
1:58 AM43 °FClear.8 mph59%30.34 "Hg10 mi
12:58 AM46 °FClear.2 mph53%30.34 "Hg10 mi
11:58 PM
Sun, Sep 25
49 °FClear.3 mph49%30.34 "Hg10 mi
10:58 PM48 °FClear.5 mph48%30.35 "Hg10 mi
9:58 PM51 °FClear.9 mph45%30.34 "Hg10 mi
Weather by CustomWeather, © 2016

See weather overviewHow to use our weather pages